User: anonymous   Login
Location: *
(49.6619°S, 177.4603°W)
Time: 00:11:14
(UTC+00:00)
Language:

Cosmos 1340 - Orbit

View from above orbital plane
View from above orbital plane
View from above satellite
View from above satellite

Ground track
Ground track

The orbit data is extracted from the following two-line orbital elements,

1 13067U 82013A   23151.35206903  .00010988  00000-0  37809-3 0  9997
2 13067  81.1812 110.7789 0005178  62.0889 298.0871 15.29933102258091
Epoch (UTC): 31 May 2023 08:26:58
Eccentricity: 0.0005178
inclination: 81.1812°
perigee height: 472 km
apogee height: 479 km
right ascension of ascending node: 110.7789°
argument of perigee: 62.0889°
revolutions per day: 15.29933102
mean anomaly at epoch: 298.0871°
orbit number at epoch: 25809

The dashed part of the orbit path shows where the satellite is in the earth's shadow,  

DLR